• In Netherlands
  • List of Countries
  • For 7 days
  • Water Temperature
  • Satellite Maps
  • Weather Map
  • Weather Widgets
  • user-avatar
    Login

    Hourly Weather Orsha

    Today, 25 April, Tuesday

    Time Temperature Precipitation Wind Pressure Humidity
    00:00 -1°C° 0 mm 2 mps 743 mmHg 86%
    01:00 -2°C° 0 mm 2 mps 743 mmHg 89%
    02:00 -2°C° 0 mm 2 mps 743 mmHg 94%
    03:00 -2°C° 0 mm 2 mps 743 mmHg 94%
    04:00 -2°C° 0 mm 2 mps 743 mmHg 94%
    05:00 -2°C° 0 mm 2 mps 743 mmHg 94%
    06:00 0°C° 0 mm 3 mps 743 mmHg 84%
    07:00 +2°C° 0 mm 3 mps 743 mmHg 75%
    08:00 +4°C° 0 mm 4 mps 743 mmHg 64%
    09:00 +6°C° 0 mm 4 mps 743 mmHg 61%
    10:00 +7°C° 0 mm 5 mps 743 mmHg 58%
    11:00 +8°C° 0 mm 6 mps 743 mmHg 55%
    12:00 +8°C° 0 mm 6 mps 743 mmHg 57%
    13:00 +9°C° 0 mm 6 mps 743 mmHg 58%
    14:00 +9°C° 0 mm 6 mps 742 mmHg 60%
    15:00 +9°C° 0 mm 6 mps 742 mmHg 62%
    16:00 +9°C° 0 mm 5 mps 742 mmHg 65%
    17:00 +9°C° 0 mm 5 mps 741 mmHg 67%
    18:00 +9°C° 0 mm 5 mps 741 mmHg 69%
    19:00 +8°C° 0 mm 5 mps 740 mmHg 71%
    20:00 +7°C° 0 mm 5 mps 740 mmHg 73%
    21:00 +7°C° 0 mm 6 mps 739 mmHg 73%
    22:00 +7°C° 0 mm 6 mps 739 mmHg 74%
    23:00 +7°C° 0 mm 6 mps 739 mmHg 74%

    Tomorrow, 26 April, Wednesday

    Time Temperature Precipitation Wind Pressure Humidity
    00:00 +7°C° 0.3 mm 6 mps 739 mmHg 79%
    01:00 +7°C° 0.3 mm 6 mps 738 mmHg 83%
    02:00 +7°C° 0.3 mm 6 mps 738 mmHg 88%
    03:00 +7°C° 0.1 mm 6 mps 738 mmHg 89%
    04:00 +7°C° 0.1 mm 6 mps 738 mmHg 89%
    05:00 +8°C° 0.1 mm 6 mps 738 mmHg 90%
    06:00 +8°C° 0.3 mm 6 mps 738 mmHg 88%
    07:00 +8°C° 0.3 mm 6 mps 739 mmHg 87%
    08:00 +9°C° 0.3 mm 6 mps 739 mmHg 85%
    09:00 +9°C° 0.9 mm 5 mps 739 mmHg 86%
    10:00 +9°C° 0.9 mm 5 mps 739 mmHg 86%
    11:00 +8°C° 0.9 mm 4 mps 740 mmHg 87%
    12:00 +8°C° 1 mm 4 mps 740 mmHg 88%
    13:00 +8°C° 1 mm 3 mps 740 mmHg 90%
    14:00 +7°C° 1 mm 2 mps 740 mmHg 91%
    15:00 +6°C° 2 mm 2 mps 741 mmHg 92%
    16:00 +6°C° 2 mm 2 mps 741 mmHg 92%
    17:00 +6°C° 2 mm 1 mps 741 mmHg 93%
    18:00 +6°C° 1 mm 1 mps 742 mmHg 94%
    19:00 +6°C° 1 mm 1 mps 742 mmHg 94%
    20:00 +6°C° 1 mm 1 mps 743 mmHg 95%
    21:00 +5°C° 0.2 mm 1 mps 743 mmHg 96%
    22:00 +5°C° 0.2 mm 1 mps 743 mmHg 96%
    23:00 +5°C° 0.2 mm 1 mps 744 mmHg 96%

    Day after tomorrow, 27 April, Thursday

    Time Temperature Precipitation Wind Pressure Humidity
    00:00 +5°C° 0.2 mm 1 mps 744 mmHg 96%
    01:00 +5°C° 0.2 mm 1 mps 744 mmHg 95%
    02:00 +4°C° 0.2 mm 1 mps 744 mmHg 95%
    03:00 +4°C° 1 mm 1 mps 743 mmHg 95%
    04:00 +5°C° 1 mm 1 mps 743 mmHg 95%
    05:00 +5°C° 1 mm 1 mps 743 mmHg 95%
    06:00 +4°C° 0.7 mm 2 mps 743 mmHg 95%
    07:00 +4°C° 0.7 mm 2 mps 743 mmHg 95%
    08:00 +4°C° 0.7 mm 2 mps 742 mmHg 95%
    09:00 +5°C° 0.9 mm 2 mps 742 mmHg 95%
    10:00 +4°C° 0.9 mm 3 mps 742 mmHg 95%
    11:00 +5°C° 0.9 mm 3 mps 742 mmHg 95%
    12:00 +5°C° 2.1 mm 3 mps 742 mmHg 94%
    13:00 +5°C° 2.1 mm 3 mps 741 mmHg 94%
    14:00 +5°C° 2.1 mm 3 mps 741 mmHg 93%
    15:00 +5°C° 2.4 mm 3 mps 741 mmHg 94%
    16:00 +4°C° 2.4 mm 3 mps 741 mmHg 95%
    17:00 +5°C° 2.4 mm 2 mps 741 mmHg 97%
    18:00 +4°C° 0.8 mm 2 mps 742 mmHg 97%
    19:00 +4°C° 0.8 mm 2 mps 742 mmHg 97%
    20:00 +4°C° 0.8 mm 2 mps 743 mmHg 97%
    21:00 +4°C° 0.1 mm 2 mps 744 mmHg 97%
    22:00 +4°C° 0.1 mm 2 mps 744 mmHg 97%
    23:00 +3°C° 0.1 mm 2 mps 745 mmHg 97%

    28 April, Friday

    Time Temperature Precipitation Wind Pressure Humidity
    00:00 +3°C° 0 mm 2 mps 745 mmHg 97%
    01:00 +3°C° 0 mm 2 mps 746 mmHg 97%
    02:00 +2°C° 0 mm 2 mps 746 mmHg 97%
    03:00 +2°C° 0 mm 2 mps 746 mmHg 96%
    04:00 +1°C° 0 mm 3 mps 747 mmHg 95%
    05:00 +1°C° 0 mm 3 mps 747 mmHg 95%
    06:00 +1°C° 0 mm 3 mps 747 mmHg 93%
    07:00 +1°C° 0 mm 4 mps 747 mmHg 91%
    08:00 +3°C° 0 mm 4 mps 747 mmHg 89%
    09:00 +3°C° 0.7 mm 4 mps 747 mmHg 89%
    10:00 +4°C° 0.7 mm 4 mps 747 mmHg 90%
    11:00 +3°C° 0.7 mm 5 mps 746 mmHg 90%
    12:00 +3°C° 1.5 mm 5 mps 746 mmHg 92%
    13:00 +3°C° 1.5 mm 5 mps 745 mmHg 93%
    14:00 +3°C° 1.5 mm 5 mps 745 mmHg 94%
    15:00 +3°C° 1.8 mm 5 mps 745 mmHg 95%
    16:00 +3°C° 1.8 mm 5 mps 744 mmHg 96%
    17:00 +3°C° 1.8 mm 5 mps 744 mmHg 96%
    18:00 +3°C° 1.8 mm 5 mps 743 mmHg 96%
    19:00 +3°C° 1.8 mm 5 mps 743 mmHg 97%
    20:00 +3°C° 1.8 mm 5 mps 742 mmHg 97%
    21:00 +5°C° 0.2 mm 5 mps 742 mmHg 97%
    22:00 +5°C° 0.2 mm 4 mps 741 mmHg 96%
    23:00 +6°C° 0.2 mm 4 mps 741 mmHg 96%

    29 April, Saturday

    Time Temperature Precipitation Wind Pressure Humidity
    00:00 +7°C° 0.2 mm 3 mps 740 mmHg 95%
    01:00 +7°C° 0.2 mm 3 mps 740 mmHg 94%
    02:00 +8°C° 0.2 mm 3 mps 739 mmHg 94%
    03:00 +8°C° 0.1 mm 3 mps 739 mmHg 93%
    04:00 +7°C° 0.1 mm 4 mps 739 mmHg 93%
    05:00 +7°C° 0.1 mm 4 mps 738 mmHg 93%
    06:00 +8°C° 0 mm 4 mps 738 mmHg 90%
    07:00 +9°C° 0 mm 5 mps 738 mmHg 87%
    08:00 +10°C° 0 mm 5 mps 738 mmHg 84%
    09:00 +12°C° 0 mm 5 mps 738 mmHg 80%
    10:00 +14°C° 0 mm 5 mps 739 mmHg 76%
    11:00 +15°C° 0 mm 5 mps 739 mmHg 72%
    12:00 +15°C° 0.2 mm 5 mps 739 mmHg 75%
    13:00 +15°C° 0.2 mm 5 mps 740 mmHg 78%
    14:00 +15°C° 0.2 mm 5 mps 740 mmHg 81%
    15:00 +14°C° 0.8 mm 4 mps 740 mmHg 85%
    16:00 +13°C° 0.8 mm 4 mps 741 mmHg 90%
    17:00 +12°C° 0.8 mm 3 mps 741 mmHg 94%
    18:00 +11°C° 0.2 mm 3 mps 741 mmHg 95%
    19:00 +10°C° 0.2 mm 3 mps 742 mmHg 95%
    20:00 +10°C° 0.2 mm 3 mps 742 mmHg 95%
    21:00 +9°C° 0.3 mm 3 mps 743 mmHg 94%
    22:00 +8°C° 0.3 mm 2 mps 743 mmHg 93%
    23:00 +7°C° 0.3 mm 2 mps 743 mmHg 93%

    30 April, Sunday

    Time Temperature Precipitation Wind Pressure Humidity
    00:00 +7°C° 0 mm 2 mps 744 mmHg 93%
    01:00 +7°C° 0 mm 2 mps 744 mmHg 93%
    02:00 +6°C° 0 mm 2 mps 744 mmHg 94%
    03:00 +6°C° 0.2 mm 2 mps 745 mmHg 94%
    04:00 +6°C° 0.2 mm 2 mps 745 mmHg 95%
    05:00 +6°C° 0.2 mm 2 mps 746 mmHg 96%
    06:00 +6°C° 0 mm 2 mps 746 mmHg 92%
    07:00 +6°C° 0 mm 2 mps 747 mmHg 89%
    08:00 +6°C° 0 mm 2 mps 747 mmHg 85%
    09:00 +7°C° 0 mm 2 mps 748 mmHg 81%
    10:00 +8°C° 0 mm 2 mps 748 mmHg 77%
    11:00 +8°C° 0 mm 2 mps 749 mmHg 73%
    12:00 +10°C° 0 mm 2 mps 749 mmHg 67%
    13:00 +12°C° 0 mm 2 mps 749 mmHg 61%
    14:00 +13°C° 0 mm 2 mps 750 mmHg 55%
    15:00 +13°C° 0 mm 2 mps 750 mmHg 57%
    16:00 +12°C° 0 mm 2 mps 750 mmHg 58%
    17:00 +12°C° 0 mm 2 mps 750 mmHg 60%
    18:00 +9°C° 0 mm 2 mps 750 mmHg 68%
    19:00 +7°C° 0 mm 2 mps 750 mmHg 76%
    20:00 +6°C° 0 mm 2 mps 751 mmHg 84%
    21:00 +5°C° 0 mm 2 mps 751 mmHg 86%
    22:00 +4°C° 0 mm 2 mps 751 mmHg 89%
    23:00 +4°C° 0 mm 2 mps 751 mmHg 91%
    Show more